• în Republica Moldova
  • Lista ţărilor
  • Pe 7 zile
  • Temperatura apei
  • Hartă satelitară
  • Meteo pe hartă
  • Widget-uri
  • user-avatar
    Intrare

    Meteo pe oră la Buda-Koshelovo

    Astăzi, 18 Iulie, Miercuri

    Timp Temperatura Precipitaţii Vânt Presiune Umiditate
    00:00 +20°C° 0 mm 2 m/s 738 mmHg 95%
    01:00 +19°C° 0 mm 2 m/s 738 mmHg 95%
    02:00 +19°C° 0 mm 2 m/s 738 mmHg 96%
    03:00 +19°C° 0 mm 2 m/s 738 mmHg 96%
    04:00 +19°C° 0 mm 3 m/s 738 mmHg 97%
    05:00 +19°C° 0 mm 3 m/s 738 mmHg 97%
    06:00 +20°C° 0 mm 3 m/s 738 mmHg 94%
    07:00 +21°C° 0 mm 3 m/s 739 mmHg 91%
    08:00 +22°C° 0 mm 3 m/s 739 mmHg 88%
    09:00 +25°C° 0,4 mm 4 m/s 739 mmHg 84%
    10:00 +26°C° 0,4 mm 4 m/s 739 mmHg 79%
    11:00 +27°C° 0,4 mm 4 m/s 739 mmHg 75%
    12:00 +27°C° 0,5 mm 5 m/s 738 mmHg 76%
    13:00 +26°C° 0,5 mm 5 m/s 738 mmHg 77%
    14:00 +26°C° 0,5 mm 5 m/s 738 mmHg 77%
    15:00 +26°C° 0,1 mm 5 m/s 738 mmHg 78%
    16:00 +26°C° 0,1 mm 5 m/s 738 mmHg 78%
    17:00 +25°C° 0,1 mm 4 m/s 738 mmHg 78%
    18:00 +23°C° 0 mm 4 m/s 738 mmHg 81%
    19:00 +22°C° 0 mm 3 m/s 738 mmHg 84%
    20:00 +21°C° 0 mm 3 m/s 738 mmHg 87%
    21:00 +20°C° 0 mm 2 m/s 738 mmHg 90%
    22:00 +20°C° 0 mm 2 m/s 738 mmHg 93%
    23:00 +19°C° 0 mm 2 m/s 738 mmHg 96%

    Mâine, 19 Iulie, Joi

    Timp Temperatura Precipitaţii Vânt Presiune Umiditate
    00:00 +19°C° 0,1 mm 2 m/s 738 mmHg 96%
    01:00 +18°C° 0,1 mm 2 m/s 738 mmHg 97%
    02:00 +18°C° 0,1 mm 2 m/s 738 mmHg 97%
    03:00 +18°C° 0 mm 2 m/s 738 mmHg 98%
    04:00 +18°C° 0 mm 2 m/s 738 mmHg 98%
    05:00 +18°C° 0 mm 2 m/s 738 mmHg 98%
    06:00 +19°C° 0 mm 2 m/s 739 mmHg 94%
    07:00 +20°C° 0 mm 2 m/s 739 mmHg 90%
    08:00 +23°C° 0 mm 2 m/s 739 mmHg 86%
    09:00 +22°C° 1,2 mm 3 m/s 739 mmHg 84%
    10:00 +24°C° 1,2 mm 3 m/s 739 mmHg 82%
    11:00 +25°C° 1,2 mm 3 m/s 739 mmHg 79%
    12:00 +25°C° 2,7 mm 3 m/s 738 mmHg 79%
    13:00 +25°C° 2,7 mm 3 m/s 738 mmHg 78%
    14:00 +26°C° 2,7 mm 3 m/s 738 mmHg 77%
    15:00 +25°C° 1,8 mm 3 m/s 738 mmHg 78%
    16:00 +25°C° 1,8 mm 4 m/s 738 mmHg 80%
    17:00 +23°C° 1,8 mm 4 m/s 738 mmHg 81%
    18:00 +22°C° 1,5 mm 4 m/s 738 mmHg 84%
    19:00 +21°C° 1,5 mm 3 m/s 738 mmHg 87%
    20:00 +21°C° 1,5 mm 3 m/s 738 mmHg 90%
    21:00 +20°C° 0,6 mm 3 m/s 738 mmHg 92%
    22:00 +20°C° 0,6 mm 3 m/s 738 mmHg 94%
    23:00 +19°C° 0,6 mm 3 m/s 738 mmHg 96%

    Poimâine, 20 Iulie, Vineri

    Timp Temperatura Precipitaţii Vânt Presiune Umiditate
    00:00 +19°C° 0 mm 3 m/s 738 mmHg 96%
    01:00 +19°C° 0 mm 3 m/s 738 mmHg 97%
    02:00 +18°C° 0 mm 3 m/s 738 mmHg 98%
    03:00 +18°C° 0,1 mm 3 m/s 739 mmHg 98%
    04:00 +18°C° 0,1 mm 3 m/s 739 mmHg 98%
    05:00 +18°C° 0,1 mm 3 m/s 739 mmHg 98%
    06:00 +19°C° 0 mm 3 m/s 739 mmHg 94%
    07:00 +20°C° 0 mm 3 m/s 739 mmHg 91%
    08:00 +21°C° 0 mm 3 m/s 739 mmHg 88%
    09:00 +22°C° 0,7 mm 3 m/s 739 mmHg 85%
    10:00 +24°C° 0,7 mm 3 m/s 739 mmHg 83%
    11:00 +25°C° 0,7 mm 3 m/s 739 mmHg 80%
    12:00 +25°C° 1,4 mm 3 m/s 739 mmHg 79%
    13:00 +26°C° 1,4 mm 3 m/s 739 mmHg 78%
    14:00 +26°C° 1,4 mm 3 m/s 739 mmHg 77%
    15:00 +26°C° 0,9 mm 3 m/s 739 mmHg 78%
    16:00 +26°C° 0,9 mm 3 m/s 739 mmHg 79%
    17:00 +26°C° 0,9 mm 3 m/s 739 mmHg 79%
    18:00 +25°C° 0,1 mm 2 m/s 739 mmHg 83%
    19:00 +24°C° 0,1 mm 2 m/s 739 mmHg 87%
    20:00 +23°C° 0,1 mm 2 m/s 739 mmHg 90%
    21:00 +21°C° 0 mm 2 m/s 739 mmHg 92%
    22:00 +21°C° 0 mm 1 m/s 739 mmHg 93%
    23:00 +21°C° 0 mm 1 m/s 739 mmHg 94%

    21 Iulie, Sâmbătă

    Timp Temperatura Precipitaţii Vânt Presiune Umiditate
    00:00 +20°C° 0 mm 1 m/s 739 mmHg 94%
    01:00 +20°C° 0 mm 1 m/s 739 mmHg 95%
    02:00 +20°C° 0 mm 1 m/s 739 mmHg 95%
    03:00 +20°C° 0 mm 1 m/s 739 mmHg 95%
    04:00 +20°C° 0 mm 1 m/s 740 mmHg 96%
    05:00 +20°C° 0 mm 1 m/s 740 mmHg 96%
    06:00 +20°C° 0 mm 2 m/s 740 mmHg 91%
    07:00 +23°C° 0 mm 2 m/s 740 mmHg 87%
    08:00 +24°C° 0 mm 2 m/s 740 mmHg 82%
    09:00 +25°C° 1 mm 2 m/s 740 mmHg 79%
    10:00 +26°C° 1 mm 2 m/s 740 mmHg 76%
    11:00 +27°C° 1 mm 2 m/s 740 mmHg 73%
    12:00 +27°C° 1,9 mm 3 m/s 740 mmHg 75%
    13:00 +26°C° 1,9 mm 3 m/s 740 mmHg 77%
    14:00 +26°C° 1,9 mm 3 m/s 740 mmHg 80%
    15:00 +26°C° 0,6 mm 3 m/s 740 mmHg 80%
    16:00 +26°C° 0,6 mm 3 m/s 740 mmHg 80%
    17:00 +26°C° 0,6 mm 3 m/s 740 mmHg 80%
    18:00 +25°C° 0,1 mm 3 m/s 740 mmHg 84%
    19:00 +24°C° 0,1 mm 2 m/s 740 mmHg 87%
    20:00 +23°C° 0,1 mm 2 m/s 740 mmHg 90%
    21:00 +21°C° 0 mm 2 m/s 740 mmHg 91%
    22:00 +21°C° 0 mm 2 m/s 740 mmHg 93%
    23:00 +20°C° 0 mm 2 m/s 740 mmHg 94%

    22 Iulie, Duminică

    Timp Temperatura Precipitaţii Vânt Presiune Umiditate
    00:00 +20°C° 0 mm 2 m/s 740 mmHg 95%
    01:00 +20°C° 0 mm 2 m/s 740 mmHg 95%
    02:00 +19°C° 0 mm 2 m/s 740 mmHg 96%
    03:00 +19°C° 0,1 mm 2 m/s 740 mmHg 96%
    04:00 +19°C° 0,1 mm 2 m/s 740 mmHg 96%
    05:00 +19°C° 0,1 mm 2 m/s 740 mmHg 96%
    06:00 +20°C° 0,3 mm 2 m/s 740 mmHg 93%
    07:00 +21°C° 0,3 mm 2 m/s 740 mmHg 90%
    08:00 +24°C° 0,3 mm 2 m/s 740 mmHg 87%
    09:00 +25°C° 1 mm 3 m/s 740 mmHg 83%
    10:00 +25°C° 1 mm 3 m/s 740 mmHg 80%
    11:00 +26°C° 1 mm 3 m/s 740 mmHg 77%
    12:00 +26°C° 0,8 mm 3 m/s 739 mmHg 77%
    13:00 +26°C° 0,8 mm 3 m/s 739 mmHg 78%
    14:00 +26°C° 0,8 mm 3 m/s 739 mmHg 78%
    15:00 +26°C° 0,5 mm 3 m/s 739 mmHg 79%
    16:00 +26°C° 0,5 mm 3 m/s 739 mmHg 81%
    17:00 +26°C° 0,5 mm 3 m/s 739 mmHg 82%
    18:00 +25°C° 0,7 mm 3 m/s 739 mmHg 85%
    19:00 +24°C° 0,7 mm 2 m/s 739 mmHg 89%
    20:00 +23°C° 0,7 mm 2 m/s 739 mmHg 92%
    21:00 +21°C° 0,4 mm 2 m/s 739 mmHg 93%
    22:00 +21°C° 0,4 mm 2 m/s 739 mmHg 94%
    23:00 +20°C° 0,4 mm 2 m/s 739 mmHg 95%

    23 Iulie, Luni

    Timp Temperatura Precipitaţii Vânt Presiune Umiditate
    00:00 +20°C° 0,1 mm 2 m/s 739 mmHg 96%
    01:00 +20°C° 0,1 mm 2 m/s 739 mmHg 96%
    02:00 +19°C° 0,1 mm 2 m/s 739 mmHg 96%
    03:00 +19°C° 0 mm 2 m/s 739 mmHg 97%
    04:00 +19°C° 0 mm 2 m/s 739 mmHg 97%
    05:00 +19°C° 0 mm 2 m/s 739 mmHg 98%
    06:00 +20°C° 0,1 mm 2 m/s 739 mmHg 95%
    07:00 +21°C° 0,1 mm 2 m/s 740 mmHg 92%
    08:00 +23°C° 0,1 mm 2 m/s 740 mmHg 89%
    09:00 +24°C° 0,8 mm 3 m/s 740 mmHg 87%
    10:00 +25°C° 0,8 mm 3 m/s 739 mmHg 85%
    11:00 +25°C° 0,8 mm 3 m/s 739 mmHg 82%
    12:00 +26°C° 0,8 mm 3 m/s 739 mmHg 82%
    13:00 +26°C° 0,8 mm 4 m/s 739 mmHg 81%
    14:00 +26°C° 0,8 mm 4 m/s 739 mmHg 80%
    15:00 +26°C° 0,6 mm 3 m/s 739 mmHg 80%
    16:00 +26°C° 0,6 mm 3 m/s 739 mmHg 80%
    17:00 +26°C° 0,6 mm 3 m/s 739 mmHg 80%
    18:00 +25°C° 0,8 mm 3 m/s 739 mmHg 84%
    19:00 +24°C° 0,8 mm 3 m/s 740 mmHg 88%
    20:00 +22°C° 0,8 mm 3 m/s 740 mmHg 92%
    21:00 +21°C° 0,6 mm 3 m/s 740 mmHg 94%
    22:00 +21°C° 0,6 mm 3 m/s 740 mmHg 95%
    23:00 +20°C° 0,6 mm 3 m/s 740 mmHg 96%
    Arată mai mult